"2010-06-11 00:00:00",190540,3.494,87.4,3.671,0.233,20.67,108.6708,21.48,22.34,47.82,0,110.8,13.24,22.31,49.4
"2010-06-11 00:00:30",190541,3.097,80.8,1.964,0.242,20.72,108.6649,21.47,22.32,47.79,0,110.8,13.24,22.29,42.8
"2010-06-11 00:01:00",190542,3.296,76.43,6.649,0.369,20.7,108.6638,21.46,22.32,47.91,0,110.8,13.24,22.29,38.4
"2010-06-11 00:01:30",190543,4.073,73.76,5.853,0.216,20.82,108.6632,21.46,22.32,47.95,0,110.8,13.24,22.29,35.8
"2010-06-11 00:02:00",190544,3.617,81.3,6.058,0.276,20.71,108.6672,21.47,22.33,47.88,0,110.8,13.24,22.30,43.3
"2010-06-11 00:02:30",190545,3.747,90,4.107,0.166,20.73,108.6641,21.46,22.33,47.91,0,110.8,13.24,22.29,52.0
"2010-06-11 00:03:00",190546,2.998,92.7,4.58,0.371,20.73,108.6618,21.46,22.34,47.91,0,110.8,13.24,22.28,54.7
"2010-06-11 00:03:30",190547,3.446,72.21,5.761,0.362,20.73,108.6638,21.46,22.35,47.98,0,110.8,13.24,22.29,34.2
"2010-06-11 00:04:00",190548,2.802,68.64,9.1,0.328,20.82,108.6652,21.47,22.35,47.99,0,110.8,13.24,22.29,30.6
"2010-06-11 00:04:30",190549,2.343,59.49,10.8,0.373,20.79,108.6664,21.47,22.35,48.11,0,110.8,13.24,22.30,21.5
"2010-06-11 00:05:00",190550,1.552,46.8,8.53,0.574,20.83,108.6651,21.47,22.35,48.16,0,110.8,13.24,22.29,8.8
"2010-06-11 00:05:30",190551,0.769,340.5,23.02,0.531,20.89,108.6807,21.51,22.36,48.03,0,110.8,13.24,22.33,302.5
"2010-06-11 00:06:00",190552,1.77,329.2,8.25,0.309,20.74,108.6859,21.52,22.35,47.89,0,110.8,13.24,22.35,291.2
"2010-06-11 00:06:30",190553,2.458,324.7,5.261,0.313,20.76,108.6856,21.52,22.36,47.88,0,110.8,13.24,22.35,286.7
"2010-06-11 00:07:00",190554,3.69,331.9,5.957,0.705,20.69,108.6684,21.47,22.35,47.99,0,110.8,13.24,22.30,293.9
"2010-06-11 00:07:30",190555,4.676,328.7,2.799,0.246,20.82,108.6615,21.46,22.33,48.22,0,110.8,13.24,22.28,290.7
"2010-06-11 00:08:00",190556,4.173,333.1,4.914,0.363,20.66,108.6354,21.39,22.29,48.05,0,110.8,13.24,22.22,295.1
"2010-06-11 00:08:30",190557,3.618,332.8,3.198,0.555,20.89,108.6289,21.37,22.25,48.45,0,110.8,13.25,22.20,294.8
"2010-06-11 00:09:00",190558,3.325,331.1,6.606,0.346,20.36,108.6009,21.3,22.23,49.3,0,110.8,13.25,22.13,293.1
"2010-06-11 00:09:30",190559,5.496,330.5,2.985,0.633,20.58,108.5469,21.16,22.14,49.86,0,110.8,13.25,21.99,292.5
"2010-06-11 00:10:00",190560,6.723,329.6,2.764,0.618,20.83,108.4793,20.99,22.04,49.56,0,110.8,13.26,21.81,291.6
"2010-06-11 00:10:30",190561,7.166,321.7,5.142,0.616,15.87,108.4312,20.87,21.93,49.77,0,110.8,13.26,21.69,283.7
"2010-06-11 00:11:00",190562,6.089,329.8,4.544,0.616,21.69,108.409,20.81,21.89,49.91,0,110.8,13.26,21.63,291.8
"2010-06-11 00:11:30",190563,6.714,324.8,1.474,0.472,21.43,108.4034,20.79,21.84,49.79,0,110.8,13.26,21.62,286.8
"2010-06-11 00:12:00",190564,6.779,321.3,2.294,0.453,19.17,108.3962,20.78,21.82,49.69,0,110.8,13.26,21.60,283.3
"2010-06-11 00:12:30",190565,5.508,325.3,1.435,0.184,21.37,108.4304,20.86,21.8,49.63,0,110.8,13.27,21.69,287.3
"2010-06-11 00:13:00",190566,6.426,322,4.999,0.398,21.58,108.4549,20.93,21.82,49.48,0,110.8,13.27,21.75,284.0
"2010-06-11 00:13:30",190567,6.806,319.5,2.505,0.294,19.05,108.4661,20.96,21.84,49.37,0,110.8,13.27,21.78,281.5
"2010-06-11 00:14:00",190568,7.338,313,2.552,0.19,21.56,108.4679,20.96,21.82,49.33,0,110.8,13.27,21.79,275.0
"2010-06-11 00:14:30",190569,7.28,311.5,1.086,0.228,21.73,108.4732,20.97,21.84,49.18,0,110.8,13.27,21.80,273.5
"2010-06-11 00:15:00",190570,8.8,311.1,1.394,0.347,19.24,108.4766,20.98,21.84,49.16,0,110.8,13.27,21.81,273.1
"2010-06-11 00:15:30",190571,9.58,311,1.292,0.2,16.67,108.4766,20.98,21.85,49.2,0,110.8,13.27,21.81,273.0
"2010-06-11 00:16:00",190572,9.53,313.4,0.718,0.073,22.92,108.476,20.98,21.85,49.19,0,110.8,13.28,21.81,275.4
"2010-06-11 00:16:30",190573,9.62,312.5,1.098,0.164,-20.27,108.4763,20.98,21.84,48.98,0,110.7,13.28,21.81,274.5
"2010-06-11 00:17:00",190574,11.53,310.1,0.993,0.666,3.467,108.4718,20.97,21.84,49.19,0,110.8,13.28,21.80,272.1
"2010-06-11 00:17:30",190575,13.15,312.5,0.96,0.481,8.79,108.4482,20.91,21.84,49.44,0,110.7,13.28,21.73,274.5
"2010-06-11 00:18:00",190576,13.56,312.7,0.65,0.229,17.35,108.418,20.83,21.83,50.05,0,110.7,13.29,21.66,274.7
"2010-06-11 00:18:30",190577,13,314.5,0.397,0.205,14.75,108.3859,20.75,21.77,50.49,0,110.7,13.29,21.57,276.5
"2010-06-11 00:19:00",190578,13.35,314.6,0.427,0.278,22.87,108.3574,20.68,21.71,51.8,0,110.7,13.3,21.50,276.6
"2010-06-11 00:19:30",190579,13.33,316,1.462,0.177,22.51,108.2931,20.51,21.64,52.44,0,110.7,13.3,21.34,278.0
"2010-06-11 00:20:00",190580,12.97,316.3,1.029,0.156,20.31,108.2322,20.36,21.53,52.66,0,110.7,13.32,21.18,278.3
"2010-06-11 00:20:30",190581,12.82,315.7,1.422,0.148,20.6,108.1674,20.19,21.41,53.55,0,110.7,13.33,21.01,277.7
"2010-06-11 00:21:00",190582,12.96,314.9,0.475,0.191,15.26,108.0859,19.98,21.28,54.56,0,110.7,13.33,20.80,276.9
"2010-06-11 00:21:30",190583,13.22,314.4,0.732,0.127,23.28,108.0322,19.84,21.13,55.14,0,110.6,13.33,20.66,276.4
"2010-06-11 00:22:00",190584,13.08,313.6,0.971,0.249,20.67,107.973,19.69,20.99,55.88,0,110.6,13.34,20.51,275.6
"2010-06-11 00:22:30",190585,13.09,314.9,3.667,0.478,17.97,107.9102,19.53,20.84,53.15,0,110.6,13.34,20.35,276.9
"2010-06-11 00:23:00",190586,11.73,307.6,2.189,0.68,-5.627,107.8631,19.41,20.7,46.98,0,110.6,13.34,20.23,269.6
"2010-06-11 00:23:30",190587,10.47,309.4,1.191,0.633,-9.57,107.8172,19.29,20.62,54.64,0,110.6,13.34,20.11,271.4
"2010-06-11 00:24:00",190588,10.14,309.9,0.96,0.374,-4.324,107.7488,19.12,20.49,58.15,0,110.6,13.35,19.93,271.9
"2010-06-11 00:24:30",190589,9.53,315.4,3.235,0.425,-31.01,107.6837,18.95,20.31,51.88,0,110.6,13.35,19.77,277.4
"2010-06-11 00:25:00",190590,8.61,315.4,4.442,0.633,-14.5,107.6446,18.85,20.16,50.87,0,110.6,13.35,19.67,277.4
"2010-06-11 00:25:30",190591,8.8,308.2,4.004,0.715,-27.94,107.6263,18.8,20.06,51.21,0,110.6,13.35,19.62,270.2
"2010-06-11 00:26:00",190592,8.93,298,2.515,0.304,-21.51,107.6292,18.81,20,52.32,0,110.6,13.35,19.63,260.0
"2010-06-11 00:26:30",190593,7.693,290.4,3.877,0.415,-5.534,107.6299,18.81,19.93,54.85,0,110.5,13.36,19.63,252.4
"2010-06-11 00:27:00",190594,7.14,277,4.71,0.181,-4.111,107.6045,18.75,19.86,52.84,0,110.5,13.36,19.56,239.0
"2010-06-11 00:27:30",190595,7.185,275,4.764,0.182,-18.08,107.6062,18.75,19.81,50.92,0,110.5,13.36,19.57,237.0
"2010-06-11 00:28:00",190596,6.943,270.9,2.247,0.574,18.6,107.5583,18.63,19.74,53.1,0,110.5,13.36,19.44,232.9
"2010-06-11 00:28:30",190597,6.081,266.5,2.446,1.098,20.33,107.5163,18.52,19.64,53.01,0,110.5,13.36,19.34,228.5
"2010-06-11 00:29:00",190598,5.535,256.8,3.872,0.589,21.42,107.507,18.5,19.55,53.5,0,110.5,13.36,19.31,218.8
"2010-06-11 00:29:30",190599,5.275,263.2,10.28,0.595,19.13,107.4808,18.43,19.5,53.74,0,110.5,13.35,19.24,225.2
"2010-06-11 00:30:00",190600,4.592,249.4,5.258,0.315,10.85,107.4789,18.42,19.47,54.13,0,110.5,13.35,19.24,211.4
"2010-06-11 00:30:30",190601,3.843,248.6,5.243,0.268,6.762,107.5349,18.57,19.49,52.09,0,110.5,13.35,19.38,210.6
"2010-06-11 00:31:00",190602,2.792,252.9,6.055,0.562,-14.15,107.5913,18.71,19.55,50.79,0,110.5,13.35,19.53,214.9
"2010-06-11 00:31:30",190603,1.833,247.7,15.82,0.563,17.02,107.6344,18.82,19.62,49.76,0,110.5,13.35,19.64,209.7
"2010-06-11 00:32:00",190604,0.967,270.5,35.94,0.554,20.1,107.6905,18.97,19.82,49.92,0,110.5,13.35,19.78,232.5
"2010-06-11 00:32:30",190605,2.452,312.3,10.87,1.338,24.15,107.7356,19.08,19.78,49.67,0,110.5,13.31,19.90,274.3
"2010-06-11 00:33:00",190606,4.209,328.8,8.42,1.419,21.35,107.7604,19.15,20.04,48.13,0,110.5,13.31,19.96,290.8
"2010-06-11 00:33:30",190607,5.801,319.2,9.29,1.484,19.95,107.7801,19.2,20.15,45.13,0,110.5,13.31,20.01,281.2
"2010-06-11 00:34:00",190608,3.816,293.5,8.09,0.983,14.22,107.8044,19.26,19.98,45.56,0,110.5,13.31,20.08,255.5
"2010-06-11 00:34:30",190609,2.999,277,8.7,0.389,-7.748,107.812,19.28,20,46.12,0,110.5,13.34,20.10,239.0
"2010-06-11 00:35:00",190610,3.656,285.9,4.583,0.253,2.695,107.8283,19.32,20.04,44.14,0,110.5,13.34,20.14,247.9
"2010-06-11 00:35:30",190611,4.302,284.3,5.732,0.531,-17.69,107.8509,19.38,20.1,43.79,0,110.5,13.34,20.20,246.3
"2010-06-11 00:36:00",190612,4.541,268.3,2.264,0.321,20.29,107.8781,19.45,20.14,43.49,0,110.5,13.34,20.27,230.3
"2010-06-11 00:36:30",190613,4.076,269.8,2.957,0.222,20.4,107.8935,19.49,20.2,43.67,0,110.5,13.34,20.31,231.8
"2010-06-11 00:37:00",190614,3.471,266.5,3.161,0.565,20.53,107.9211,19.56,20.25,42.55,0,110.5,13.34,20.38,228.5
"2010-06-11 00:37:30",190615,2.42,275.1,4.062,0.227,18.38,107.939,19.6,20.3,42.4,0,110.5,13.33,20.42,237.1
"2010-06-11 00:38:00",190616,2.834,248.7,6.692,0.311,20.69,107.9562,19.65,20.35,42.34,0,110.5,13.33,20.47,210.7
"2010-06-11 00:38:30",190617,2.947,251,4.608,0.266,20.33,107.9785,19.7,20.41,42.24,0,110.5,13.33,20.53,213.0
"2010-06-11 00:39:00",190618,3.15,260,5.629,0.341,20.86,108.0174,19.8,20.47,40.16,0,110.5,13.33,20.63,222.0
"2010-06-11 00:39:30",190619,2.427,248.3,8.5,0.165,20.32,108.0634,19.92,20.57,41.38,0,110.5,13.33,20.74,210.3
"2010-06-11 00:40:00",190620,2.957,250.2,4.668,0.221,20.38,108.0819,19.97,20.63,40.47,0,110.5,13.33,20.79,212.2
"2010-06-11 00:40:30",190621,3.443,249.8,6.238,0.271,20.4,108.1259,20.08,20.71,38.37,0,110.5,13.33,20.90,211.8
"2010-06-11 00:41:00",190622,3.452,257.8,4.004,0.382,20.4,108.184,20.23,20.82,38.03,0,110.5,13.33,21.05,219.8
"2010-06-11 00:41:30",190623,3.39,240.8,3.962,0.344,20.24,108.2354,20.36,20.95,37.54,0,110.5,13.33,21.19,202.8
"2010-06-11 00:42:00",190624,3.154,232.4,4.885,0.363,19.84,108.2519,20.41,21.02,38.08,0,110.5,13.33,21.23,194.4
"2010-06-11 00:42:30",190625,2.405,226.6,5.204,0.246,19.88,108.2674,20.45,21.09,37.53,0,110.5,13.33,21.27,188.6
"2010-06-11 00:43:00",190626,1.755,224.9,5.158,0.312,19.74,108.2854,20.49,21.14,37.58,0,110.5,13.33,21.32,186.9
"2010-06-11 00:43:30",190627,2.208,214.3,7.619,0.353,19.74,108.2854,20.49,21.18,37.33,0,110.5,13.33,21.32,176.3
"2010-06-11 00:44:00",190628,1.762,206.5,9.49,0.135,19.73,108.2854,20.49,21.21,37.4,0,110.5,13.33,21.32,168.5
"2010-06-11 00:44:30",190629,1.985,210.7,4.159,0.327,19.98,108.2896,20.5,21.26,36.82,0,110.5,13.33,21.33,172.7
"2010-06-11 00:45:00",190630,2.609,202.6,5.164,0.247,20.08,108.3206,20.58,21.3,35.95,0,110.5,13.33,21.41,164.6
"2010-06-11 00:45:30",190631,3.425,194.4,7.695,0.542,20.1,108.3404,20.63,21.34,36.53,0,110.5,13.33,21.46,156.4
"2010-06-11 00:46:00",190632,4.277,201.2,5.106,0.171,19.85,108.3252,20.59,21.36,37.44,0,110.5,13.33,21.42,163.2
"2010-06-11 00:46:30",190633,4.281,191.9,3.558,0.309,19.95,108.3145,20.57,21.36,36.97,0,110.5,13.33,21.39,153.9
"2010-06-11 00:47:00",190634,4.411,192.6,2.433,0.14,17.46,108.2899,20.5,21.34,36.98,0,110.5,13.33,21.33,154.6
"2010-06-11 00:47:30",190635,4.252,190.6,4.579,0.224,19.87,108.2772,20.47,21.31,37.58,0,110.5,13.33,21.29,152.6
"2010-06-11 00:48:00",190636,3.718,183.5,3.784,0.345,20.58,108.2502,20.4,21.3,37.89,0,110.5,13.33,21.22,145.5
"2010-06-11 00:48:30",190637,3.63,187.4,2.439,0.208,20.41,108.2403,20.38,21.25,35.77,0,110.6,13.33,21.20,149.4
"2010-06-11 00:49:00",190638,3.765,195.6,5.481,0.233,18.08,108.2665,20.44,21.26,33.79,0,110.6,13.33,21.27,157.6
"2010-06-11 00:49:30",190639,3.802,201.6,1.63,0.102,20.83,108.3316,20.61,21.34,32.85,0,110.6,13.32,21.43,163.6
"2010-06-11 00:50:00",190640,3.717,207.7,2.654,0.17,20.94,108.3979,20.78,21.44,32.45,0,110.6,13.32,21.61,169.7
"2010-06-11 00:50:30",190641,3.815,216.1,3.468,0.134,20.59,108.4594,20.94,21.56,32.36,0,110.6,13.32,21.76,178.1
"2010-06-11 00:51:00",190642,4.167,223.7,1.569,0.115,20.7,108.51,21.07,21.67,32.11,0,110.6,13.32,21.89,185.7
"2010-06-11 00:51:30",190643,4.023,229.2,1.879,0.126,20.51,108.554,21.18,21.77,31.95,0,110.6,13.32,22.01,191.2
"2010-06-11 00:52:00",190644,4.168,229.3,2.521,0.129,20.06,108.5651,21.21,21.86,32.11,0,110.6,13.32,22.04,191.3
"2010-06-11 00:52:30",190645,4.672,227.9,1.565,0.207,19.88,108.5734,21.23,21.92,32.68,0,110.6,13.32,22.06,189.9
"2010-06-11 00:53:00",190646,4.396,225.2,2.204,0.306,19.39,108.5553,21.18,21.94,33.36,0,110.6,13.32,22.01,187.2
"2010-06-11 00:53:30",190647,3.69,222.8,4.707,0.244,19.15,108.519,21.09,21.93,34.36,0,110.6,13.31,21.92,184.8
"2010-06-11 00:54:00",190648,3.689,217.3,6.473,0.339,18.94,108.4683,20.96,21.87,35.15,0,110.6,13.31,21.79,179.3
"2010-06-11 00:54:30",190649,3.31,199.1,5.043,0.35,18.39,108.4094,20.81,21.78,36.74,0,110.6,13.31,21.63,161.1
"2010-06-11 00:55:00",190650,2.615,186.3,5.849,0.286,18.21,108.3412,20.64,21.67,37.44,0,110.6,13.31,21.46,148.3
"2010-06-11 00:55:30",190651,2.647,173.2,4.16,0.176,18.09,108.2809,20.48,21.55,38.32,0,110.6,13.31,21.30,135.2
"2010-06-11 00:56:00",190652,2.926,171.2,4.267,0.272,18.1,108.2214,20.33,21.43,39.12,0,110.6,13.3,21.15,133.2
"2010-06-11 00:56:30",190653,3.4,163.5,3.596,0.224,18.01,108.1615,20.17,21.31,40.72,0,110.6,13.3,21.00,125.5
"2010-06-11 00:57:00",190654,3.617,158,3.354,0.26,18.03,108.114,20.05,21.21,41.16,0,110.6,13.3,20.87,120.0
"2010-06-11 00:57:30",190655,4.452,154.3,2.156,0.211,17.94,108.0654,19.93,21.11,42.37,0,110.7,13.3,20.75,116.3
"2010-06-11 00:58:00",190656,4.597,152.6,3.227,0.186,18.09,108.0396,19.86,21.03,41.85,0,110.7,13.3,20.68,114.6
"2010-06-11 00:58:30",190657,5.54,145.4,2.434,0.188,18.27,108.01,19.79,20.96,42.53,0,110.7,13.3,20.61,107.4
"2010-06-11 00:59:00",190658,5.221,147.6,2.72,0.134,18.31,108.0069,19.78,20.89,42.51,0,110.7,13.3,20.60,109.6
"2010-06-11 00:59:30",190659,5.251,150.1,2.471,0.204,18.34,107.9813,19.71,20.84,42.24,0,110.7,13.3,20.53,112.1
"2010-06-11 01:00:00",190660,5.075,157.4,2.528,0.249,18.76,107.9757,19.7,20.79,41.69,0,110.7,13.3,20.52,119.4
"2010-06-11 01:00:30",190661,5.09,156.3,4.929,0.211,19.35,107.9754,19.7,20.74,41.79,0,110.7,13.3,20.52,118.3
"2010-06-11 01:01:00",190662,4.919,154.6,2.932,0.166,16.44,107.9605,19.66,20.69,42.53,0,110.7,13.3,20.48,116.6
"2010-06-11 01:01:30",190663,4.877,159.2,4.381,0.226,18.79,107.9424,19.61,20.67,42.86,0,110.7,13.3,20.43,121.2
"2010-06-11 01:02:00",190664,5.443,158.5,4.062,0.29,18.86,107.9419,19.61,20.63,42.95,0,110.7,13.3,20.43,120.5
"2010-06-11 01:02:30",190665,5.174,153.9,2.009,0.337,18.83,107.9419,19.61,20.61,43.41,0,110.7,13.3,20.43,115.9
"2010-06-11 01:03:00",190666,4.824,159.3,3.711,0.275,18.71,107.9413,19.61,20.58,43.22,0,110.7,13.3,20.43,121.3
"2010-06-11 01:03:30",190667,3.929,164.4,2.264,0.193,18.72,107.9407,19.61,20.56,42.25,0,110.7,13.3,20.43,126.4
"2010-06-11 01:04:00",190668,3.908,157.8,4.306,0.121,18.59,107.9397,19.61,20.55,42.62,0,110.7,13.3,20.43,119.8
"2010-06-11 01:04:30",190669,3.517,165.5,2.305,0.217,18.7,107.9379,19.6,20.52,42.01,0,110.7,13.29,20.42,127.5
"2010-06-11 01:05:00",190670,3.47,166.3,2.431,0.086,18.64,107.9381,19.6,20.53,41.9,0,110.7,13.29,20.42,128.3
"2010-06-11 01:05:30",190671,3.775,163.5,7.677,0.226,18.51,107.9585,19.65,20.54,42.86,0,110.7,13.29,20.47,125.5
"2010-06-11 01:06:00",190672,3.535,159.3,11.43,0.249,18.61,107.9533,19.64,20.55,42.8,0,110.7,13.29,20.46,121.3
"2010-06-11 01:06:30",190673,3.935,168.4,4.502,0.253,18.72,107.9492,19.63,20.54,42.51,0,110.7,13.29,20.45,130.4
"2010-06-11 01:07:00",190674,3.304,155,5.608,0.213,18.76,107.9437,19.62,20.54,42.91,0,110.7,13.29,20.44,117.0
"2010-06-11 01:07:30",190675,3.903,160.9,5.422,0.281,18.89,107.941,19.61,20.54,43.22,0,110.7,13.29,20.43,122.9
"2010-06-11 01:08:00",190676,4.059,145.6,4.713,0.426,18.86,107.9401,19.61,20.53,43.66,0,110.7,13.29,20.43,107.6
"2010-06-11 01:08:30",190677,4.223,150.2,9.58,0.365,18.92,107.9392,19.6,20.54,43.74,0,110.7,13.29,20.42,112.2
"2010-06-11 01:09:00",190678,3.408,142.1,8.48,0.44,19.16,107.9392,19.6,20.52,43.53,0,110.7,13.29,20.42,104.1
"2010-06-11 01:09:30",190679,4.176,132.7,4.941,0.383,19.25,107.9392,19.6,20.54,43.37,0,110.7,13.29,20.42,94.7
"2010-06-11 01:10:00",190680,4.388,145.2,7.654,0.241,19.21,107.9414,19.61,20.53,43.35,0,110.7,13.29,20.43,107.2
"2010-06-11 01:10:30",190681,3.77,128.2,5.358,0.446,19.24,107.9555,19.65,20.54,43.06,0,110.7,13.29,20.47,90.2
"2010-06-11 01:11:00",190682,3.912,136.8,7.119,0.263,19.19,107.9662,19.67,20.55,42.93,0,110.7,13.28,20.49,98.8
"2010-06-11 01:11:30",190683,3.958,129.9,2.647,0.209,19.47,107.973,19.69,20.56,43.1,0,110.7,13.28,20.51,91.9
"2010-06-11 01:12:00",190684,4.173,130.1,2.095,0.296,19.33,107.973,19.69,20.57,43.18,0,110.7,13.28,20.51,92.1
"2010-06-11 01:12:30",190685,3.867,151,20.38,0.602,19.3,107.9741,19.69,20.58,42.92,0,110.7,13.28,20.51,113.0
"2010-06-11 01:13:00",190686,3.433,126.7,6.437,0.557,19.09,107.9941,19.74,20.6,42.95,0,110.7,13.28,20.57,88.7
"2010-06-11 01:13:30",190687,4.181,137.2,6.146,0.366,19.02,108.0051,19.77,20.61,42.81,0,110.7,13.28,20.59,99.2
"2010-06-11 01:14:00",190688,3.585,138.1,4.093,0.262,19.07,108.0068,19.78,20.62,42.66,0,110.7,13.28,20.60,100.1
"2010-06-11 01:14:30",190689,3.79,131.7,5.868,0.453,18.98,108.0068,19.78,20.63,42.53,0,110.7,13.27,20.60,93.7
"2010-06-11 01:15:00",190690,4.07,123.2,4.46,0.424,18.88,108.0068,19.78,20.63,42.35,0,110.7,13.28,20.60,85.2
"2010-06-11 01:15:30",190691,3.776,140.1,5.718,0.415,18.98,108.0068,19.78,20.65,42.3,0,110.7,13.28,20.60,102.1
"2010-06-11 01:16:00",190692,5.107,130.2,2.376,0.165,18.75,108.0068,19.78,20.65,41.67,0,110.7,13.28,20.60,92.2
"2010-06-11 01:16:30",190693,5.348,131,2.898,0.331,18.58,108.0068,19.78,20.67,41.4,0,110.7,13.28,20.60,93.0
"2010-06-11 01:17:00",190694,5.65,135.5,4.354,0.26,18.35,108.0068,19.78,20.66,41.34,0,110.7,13.28,20.60,97.5
"2010-06-11 01:17:30",190695,6.154,131.5,2.401,0.264,18.19,108.0062,19.78,20.64,41.32,0,110.7,13.28,20.60,93.5
"2010-06-11 01:18:00",190696,6.351,134.5,2.078,0.315,18.28,107.9811,19.71,20.63,41.29,0,110.7,13.28,20.53,96.5
"2010-06-11 01:18:30",190697,5.769,138.1,2.772,0.37,18.49,107.9732,19.69,20.59,41.25,0,110.7,13.29,20.51,100.1
"2010-06-11 01:19:00",190698,5.943,136.8,2.224,0.246,18.41,107.9732,19.69,20.6,41.2,0,110.7,13.29,20.51,98.8
"2010-06-11 01:19:30",190699,6.388,138.4,1.312,0.127,18.37,107.9782,19.7,20.59,41.15,0,110.7,13.28,20.52,100.4
"2010-06-11 01:20:00",190700,6.156,141,1.05,0.138,18.17,107.974,19.69,20.6,41.53,0,110.7,13.28,20.51,103.0
"2010-06-11 01:20:30",190701,6.119,145.1,2.418,0.309,18.69,107.9776,19.7,20.6,41.12,0,110.7,13.28,20.52,107.1
"2010-06-11 01:21:00",190702,6.123,147.1,0.796,0.1,18.44,107.9919,19.74,20.61,41.21,0,110.7,13.28,20.56,109.1
"2010-06-11 01:21:30",190703,6.313,142.9,5.491,0.413,18.28,107.9891,19.73,20.61,41.76,0,110.7,13.28,20.55,104.9
"2010-06-11 01:22:00",190704,6.22,145.8,8.48,0.526,18.25,107.9784,19.7,20.6,42.51,0,110.7,13.28,20.53,107.8
"2010-06-11 01:22:30",190705,6.788,140.8,1.575,0.489,18.09,107.9615,19.66,20.6,42.81,0,110.7,13.28,20.48,102.8
"2010-06-11 01:23:00",190706,7.291,140.9,1.714,0.27,18,107.9402,19.61,20.59,44.2,0,110.7,13.28,20.43,102.9
"2010-06-11 01:23:30",190707,7.056,144.4,1.675,0.102,18.06,107.9203,19.56,20.56,44.07,0,110.7,13.28,20.38,106.4
"2010-06-11 01:24:00",190708,6.685,143.9,2.064,0.269,18.09,107.9022,19.51,20.52,44.12,0,110.7,13.28,20.33,105.9
"2010-06-11 01:24:30",190709,6.296,148.2,1.363,0.131,18.23,107.8706,19.43,20.49,43.54,0,110.7,13.28,20.25,110.2
"2010-06-11 01:25:00",190710,6.285,148.9,1.265,0.159,18.21,107.869,19.42,20.45,44.08,0,110.7,13.28,20.24,110.9
"2010-06-11 01:25:30",190711,6.288,148.3,1.202,0.205,18.3,107.8495,19.37,20.43,43.65,0,110.7,13.28,20.19,110.3
"2010-06-11 01:26:00",190712,6.218,150.6,2.281,0.152,18.34,107.8352,19.34,20.4,44.1,0,110.7,13.28,20.16,112.6
"2010-06-11 01:26:30",190713,6.3,151.3,1.803,0.07,18.37,107.8352,19.34,20.37,44.13,0,110.7,13.28,20.16,113.3
"2010-06-11 01:27:00",190714,6.305,147.2,1.666,0.176,18.15,107.8312,19.33,20.34,45.14,0,110.7,13.28,20.15,109.2
"2010-06-11 01:27:30",190715,5.785,142.3,1.695,0.24,18.07,107.8039,19.26,20.33,45.52,0,110.7,13.27,20.08,104.3
"2010-06-11 01:28:00",190716,5.802,145,4.253,0.293,18.26,107.8014,19.25,20.28,45.42,0,110.7,13.27,20.07,107.0
"2010-06-11 01:28:30",190717,5.401,137.1,3.3,0.344,18.17,107.7778,19.19,20.24,45.58,0,110.7,13.27,20.01,99.1
"2010-06-11 01:29:00",190718,4.942,135.1,1.587,0.262,18.07,107.7676,19.16,20.22,45.84,0,110.7,13.27,19.98,97.1
"2010-06-11 01:29:30",190719,4.436,137.2,2.48,0.055,18.27,107.744,19.1,20.17,45.67,0,110.7,13.27,19.92,99.2
"2010-06-11 01:30:00",190720,4.531,142,2.434,0.167,18.29,107.7339,19.08,20.14,45.7,0,110.7,13.27,19.90,104.0
"2010-06-11 01:30:30",190721,4.346,146.4,3.824,0.109,18.36,107.7339,19.08,20.11,45.82,0,110.7,13.27,19.90,108.4
"2010-06-11 01:31:00",190722,4.526,150.1,1.778,0.187,18.42,107.7339,19.08,20.1,45.79,0,110.7,13.27,19.90,112.1
"2010-06-11 01:31:30",190723,4,146.1,1.754,0.109,18.52,107.7339,19.08,20.07,45.87,0,110.7,13.27,19.90,108.1
"2010-06-11 01:32:00",190724,3.751,149.9,1.8,0.172,18.69,107.7339,19.08,20.07,45.57,0,110.7,13.27,19.90,111.9
"2010-06-11 01:32:30",190725,3.303,152.8,3.144,0.193,18.91,107.7479,19.11,20.06,45.14,0,110.7,13.27,19.93,114.8
"2010-06-11 01:33:00",190726,2.903,156.9,3.34,0.154,19.01,107.7679,19.16,20.08,44.6,0,110.7,13.28,19.98,118.9
"2010-06-11 01:33:30",190727,2.99,158.1,4.944,0.265,18.96,107.7966,19.24,20.12,44.59,0,110.7,13.28,20.06,120.1
"2010-06-11 01:34:00",190728,3.225,159.4,2.758,0.105,19.03,107.8014,19.25,20.15,44.9,0,110.7,13.28,20.07,121.4
"2010-06-11 01:34:30",190729,3.23,153.9,2.955,0.135,18.97,107.8014,19.25,20.15,45.03,0,110.7,13.28,20.07,115.9
"2010-06-11 01:35:00",190730,2.839,154.6,4.047,0.247,18.84,107.802,19.25,20.16,45.07,0,110.7,13.28,20.07,116.6
"2010-06-11 01:35:30",190731,2.681,149.5,6.67,0.248,18.89,107.8121,19.28,20.17,45.01,0,110.7,13.28,20.10,111.5
"2010-06-11 01:36:00",190732,2.915,155.5,3.459,0.214,18.82,107.8301,19.32,20.18,44.63,0,110.7,13.28,20.14,117.5
"2010-06-11 01:36:30",190733,3.051,153,3.761,0.107,18.48,107.8352,19.34,20.22,45.21,0,110.7,13.28,20.16,115.0
"2010-06-11 01:37:00",190734,2.951,148.9,3.308,0.181,18.56,107.8352,19.34,20.22,45.05,0,110.7,13.28,20.16,110.9
"2010-06-11 01:37:30",190735,2.959,156.1,2.721,0.136,18.47,107.8357,19.34,20.23,45.01,0,110.7,13.28,20.16,118.1
"2010-06-11 01:38:00",190736,2.569,161.3,6.599,0.252,18.59,107.8543,19.39,20.24,44.86,0,110.7,13.28,20.21,123.3
"2010-06-11 01:38:30",190737,2.558,171.1,3.256,0.287,18.62,107.869,19.42,20.27,44.61,0,110.7,13.28,20.24,133.1
"2010-06-11 01:39:00",190738,3.193,163.9,5.394,0.126,18.28,107.869,19.42,20.29,45.38,0,110.7,13.28,20.24,125.9
"2010-06-11 01:39:30",190739,3.152,161.5,4.304,0.182,18.19,107.869,19.42,20.29,45.61,0,110.7,13.28,20.24,123.5
"2010-06-11 01:40:00",190740,3.447,152.8,3.717,0.157,18.22,107.8574,19.39,20.27,45.6,0,110.7,13.28,20.21,114.8
"2010-06-11 01:40:30",190741,3.47,144.6,2.563,0.149,18.17,107.8363,19.34,20.26,45.93,0,110.7,13.28,20.16,106.6
"2010-06-11 01:41:00",190742,3.882,141.3,3.973,0.27,18.17,107.8352,19.34,20.26,46.33,0,110.7,13.28,20.16,103.3
"2010-06-11 01:41:30",190743,4.314,140.4,2.81,0.226,18.03,107.8279,19.32,20.24,46.6,0,110.7,13.28,20.14,102.4
"2010-06-11 01:42:00",190744,4.809,144.7,2.184,0.115,17.97,107.8025,19.25,20.21,46.84,0,110.7,13.28,20.07,106.7
"2010-06-11 01:42:30",190745,5.231,146.7,0.871,0.105,18.06,107.7854,19.21,20.19,46.95,0,110.7,13.28,20.03,108.7
"2010-06-11 01:43:00",190746,5.301,146.9,0.697,0.074,18.03,107.7676,19.16,20.15,47.11,0,110.7,13.28,19.98,108.9
"2010-06-11 01:43:30",190747,4.615,146,1.213,0.304,18.28,107.762,19.15,20.11,46.77,0,110.7,13.28,19.97,108.0
"2010-06-11 01:44:00",190748,4.01,145.6,1.923,0.094,18.35,107.762,19.15,20.1,46.49,0,110.7,13.27,19.97,107.6
"2010-06-11 01:44:30",190749,3.595,152.3,2.966,0.218,18.41,107.7676,19.16,20.09,46.28,0,110.7,13.27,19.98,114.3
"2010-06-11 01:45:00",190750,3.364,154,1.81,0.123,18.57,107.7775,19.19,20.09,46.19,0,110.7,13.27,20.01,116.0
"2010-06-11 01:45:30",190751,3.223,154.7,3.911,0.135,18.54,107.8009,19.25,20.11,46.23,0,110.7,13.27,20.07,116.7
"2010-06-11 01:46:00",190752,2.996,157.9,1.733,0.112,18.52,107.8042,19.26,20.14,46.08,0,110.7,13.27,20.08,119.9
"2010-06-11 01:46:30",190753,2.885,164.9,5.754,0.209,18.72,107.8335,19.33,20.16,45.96,0,110.7,13.27,20.15,126.9
"2010-06-11 01:47:00",190754,2.622,179.6,3.876,0.248,18.9,107.858,19.4,20.21,45.85,0,110.7,13.27,20.22,141.6
"2010-06-11 01:47:30",190755,2.359,183.2,3.723,0.145,18.86,107.892,19.48,20.26,45.7,0,110.7,13.27,20.30,145.2